Location: Henau
(47.4548°N, 9.1164°E)
Time: 21:34:31
(UTC+00:00)

SME Rocket - Pass Details

Date: 03 March 2021
Orbit: 550 x 2652 km, 99.9° (Epoch: 14 April)

Event Time Altitude Azimuth Distance (km) Brightness Sun altitude
Rises 19:06:15 0° 15° (NNE) 5,052 7.7 -20.1°
Reaches altitude 10° 19:09:50 10° 18° (NNE) 3,739 7.0 -20.7°
Maximum altitude 19:18:11 75° 103° (ESE) 1,124 4.1 -22.0°
Drops below altitude 10° 19:23:32 10° 189° (S) 2,431 6.0 -22.9°
Sets 19:25:27 0° 191° (SSW) 3,194 6.7 -23.2°
